Regional Weather Roundup
Issued by NWS

Home | Current Version | Previous Version | Text Only | Print | Product List | Glossary Off
Versions: 1 2 3 4 5 6 7 8 9 10 11 12 13 14 15 16 17 18 19 20 21 22 23 24 25 26 27 28 29 30 31 32 33 34 35 36 37 38 39 40 41 42 43 44 45 46 47 48 49 50

000
ASUS43 KDMX 250607
RWRIA

WEATHER ROUNDUP FOR IOWA
NATIONAL WEATHER SERVICE DES MOINES IA
100 AM CDT SAT APR 25 2015

NOTE: "FAIR" INDICATES FEW OR NO CLOUDS BELOW 12,000 FEET WITH NO
SIGNIFICANT WEATHER AND/OR OBSTRUCTIONS TO VISIBILITY.

* - THESE STATIONS ARE NOT NWS STATIONS...THUS NOT UNDER NWS
QUALITY CONTROL.  THEY ALSO DO NOT REPORT WEATHER SUCH
AS PRECIPITATION OR FOG.

IAZ001>003-012>014-020>022-031>034-043>046-250700-
   NORTHWEST IOWA

CITY           SKY/WX    TMP DP  RH WIND       PRES   REMARKS
CARROLL *      CLOUDY    48  48 100 E15       29.61S FOG
CHEROKEE *     CLOUDY    50  47  92 E7        29.62S
DENISON *      CLOUDY    48  48 100 E12       29.57F FOG
LE MARS *      PTCLDY    50  48  93 E10       29.61S
ORANGE CITY *  CLOUDY    46  45  93 E12G17    29.61S
SHELDON *      CLOUDY    48  46  93 SE20      29.62F
SIOUX CITY     CLOUDY    56  49  77 E17       29.57S
6HR MIN TEMP:  56; 6HR MAX TEMP:  72;

SPENCER        CLOUDY    47  43  86 E16       29.66R
6HR MIN TEMP:  47; 6HR MAX TEMP:  54;

STORM LAKE *   CLOUDY    48  46  93 E17       29.62F FOG
$$

IAZ055>058-069>071-079>083-090>094-250700-
   SOUTHWEST IOWA

CITY           SKY/WX    TMP DP  RH WIND       PRES   REMARKS
ATLANTIC *     CLOUDY    52  52 100 E13G21    29.56F FOG
AUDUBON *      DRIZZLE   48  46  93 E12       29.59F
CLARINDA *     CLOUDY    57  55  94 SE8G17    29.53F
COUNCIL BLFS * CLOUDY    55  55 100 E15       29.52F
CRESTON *      CLOUDY    55  55 100 E15       29.56F
HARLAN  *      CLOUDY    52  52 100 E10       29.59F FOG
LAMONI         CLOUDY    57  52  83 E9        29.56F
6HR MIN TEMP:  56; 6HR MAX TEMP:  58;

RED OAK *      CLOUDY    57  55  94 E7        29.52F
SHENANDOAH *   CLOUDY    57  55  94 E14G21    29.50F
$$

IAZ047>049-059>061-072>074-084-250700-
   CENTRAL IOWA

CITY           SKY/WX    TMP DP  RH WIND       PRES   REMARKS
AMES           LGT RAIN  47  42  83 E12       29.65F
6HR MIN TEMP:  47; 6HR MAX TEMP:  50; 6HR PCP: TRACE;

ANKENY *       CLOUDY    48  45  87 E8        29.64S
CHARITON *     CLOUDY    52  50  93 E9        29.61F
DES MOINES     CLOUDY    50  44  80 E12       29.64R
6HR MIN TEMP:  50; 6HR MAX TEMP:  54; 6HR PCP: TRACE;

GRINNELL*      CLOUDY    46  43  87 E15       29.67F
KNOXVILLE *    CLOUDY    50  45  81 E7        29.62R
MARSHALLTOWN   CLOUDY    46  42  86 E18G25    29.66F
6HR MIN TEMP:  46; 6HR MAX TEMP:  47; 6HR PCP: TRACE;

PELLA *        CLOUDY    50  46  88 E7        29.65R
PERRY *        CLOUDY    47  46  93 E16       29.63R FOG
$$

IAZ004>006-015-016-023>025-035-036-250700-
   NORTH CENTRAL IOWA

CITY           SKY/WX    TMP DP  RH WIND       PRES   REMARKS
ALGONA *       CLOUDY    45  43  93 E15       29.69R
CLARION *      CLOUDY    45  45 100 E20       29.67F
ESTHERVILLE    CLOUDY    45  41  86 E16       29.68S
6HR MIN TEMP:  45; 6HR MAX TEMP:  49;

FORT DODGE *   CLOUDY    46  41  81 E17       29.66S
MASON CITY     CLOUDY    44  40  85 E15       29.72F
6HR MIN TEMP:  44; 6HR MAX TEMP:  46;

FOREST CITY *  CLOUDY    43  39  87 E15G22    29.70F
IOWA FALLS *   CLOUDY    45  41  87 E18       29.69F
$$

IAZ007>011-017>019-026>030-037>042-050>054-066-250700-
   NORTHEAST IOWA

CITY           SKY/WX    TMP DP  RH WIND       PRES   REMARKS
CEDAR RAPIDS   CLOUDY    44  50 100 E17       29.70F HAZE
6HR MIN TEMP:  44; 6HR MAX TEMP:  46; 6HR PCP:  0.25;

CHARLES CITY * CLOUDY    43  41  93 E18G25    29.74F
CLINTON *        N/A     43  37  81 E21G29    29.77F
DECORAH *      CLOUDY    41  39  93 E15G26    29.78S
DUBUQUE        CLOUDY    42  37  82 E16       29.79F
6HR MIN TEMP:  42; 6HR MAX TEMP:  44;

MONTICELLO *   CLOUDY    43  43 100 E10       29.77F
OELWEIN *      CLOUDY    43  39  87 E18G24    29.75F
WATERLOO       CLOUDY    44  40  85 E16G25    29.72F
6HR MIN TEMP:  44; 6HR MAX TEMP:  46;

$$

IAZ064-065-067-068-078-250700-
   EAST CENTRAL IOWA

CITY           SKY/WX    TMP DP  RH WIND       PRES   REMARKS
DAVENPORT      MOCLDY    43  39  86 E18       29.74F FOG
6HR MIN TEMP:  43; 6HR MAX TEMP:  47; 6HR PCP:  0.09;

IOWA CITY      CLOUDY    48  42  80 NE10      29.73R
6HR MIN TEMP:  47; 6HR MAX TEMP:  48; 6HR PCP:  0.09;

MT. PLEASANT * CLOUDY    53  37  54 E10       29.68F
MUSCATINE *    CLOUDY    52  41  66 E13G21    29.71F
QUAD CITIES    LGT RAIN  45  39  79 E16       29.75F
6HR MIN TEMP:  46; 6HR MAX TEMP:  50; 6HR PCP:  0.02;

$$

IAZ062-063-075>077-085>089-095>099-250700-
   SOUTHEAST IOWA

CITY           SKY/WX    TMP DP  RH WIND       PRES   REMARKS
BURLINGTON     MOCLDY    54  38  54 E9        29.69F
6HR MIN TEMP:  54; 6HR MAX TEMP:  62;

FAIRFIELD *    CLOUDY    54  41  62 E13       29.66F
FORT MADISON * CLOUDY    55  45  67 SE8       29.69S
KEOKUK *       CLOUDY    57  45  62 SE8       29.67S
OSKALOOSA *    CLOUDY    50  43  77 E16       29.65S
CENTERVILLE *  CLOUDY    55  52  88 SE9       29.64S
OTTUMWA        CLOUDY    52  43  71 E12       29.65S
6HR MIN TEMP:  51; 6HR MAX TEMP:  53; 6HR PCP: TRACE;

WASHINGTON *   CLOUDY    50  46  87 E16       29.67F
$$

ABBREVIATIONS USED IN REMARKS
   TC - TEMPERATURES IN CELSIUS
  WCI - WIND CHILL INDEX
   HX - HEAT INDEX
  VSB - VISIBILITY
$$




USA.gov is the U.S. government's official web portal to all federal, state and local government web resources and services.